Location: Drocourt
(49.0571°N, 1.7669°E)
Time: 07:01:52
(UTC+00:00)

SR - Pass Details

Date: 29 April 2024
Orbit: 579 x 859 km, 66.7° (Epoch: 26 May)

Event Time Altitude Azimuth Distance (km) Brightness Sun altitude
Exits shadow 00:32:13 43° 274° (W) 1,044 ? -25.7°
Maximum altitude 00:33:17 51° 312° (NW) 939 ? -25.7°
Drops below altitude 10° 00:38:07 10° 28° (NNE) 2,173 ? -25.5°
Sets 00:40:26 0° 34° (NE) 3,047 ? -25.4°
